GW3820 Weather Reports


time (UTC)temp
C
wind
direction
speed
KPH
gust
KPH
rain 1hr
cm
rain 24hr
cm
rain mn
cm
humidity
%
barometer
mb
20260503210838 18 237 8.0 16.1 0.00 0.00 0.00 39 1009.6
20260503205838 17 213 17.7 32.2 0.00 0.00 0.00 40 1009.8
20260503204818 17 251 11.3 33.8 0.00 0.00 0.00 38 1009.9
20260503203817 18 215 14.5 29.0 0.00 0.00 0.00 38 1010.0
20260503202818 18 252 12.9 32.2 0.00 0.00 0.00 39 1010.1
20260503201818 17 273 9.7 29.0 0.00 0.00 0.00 39 1010.0
20260503200818 18 223 14.5 22.5 0.00 0.00 0.00 38 1010.1
20260503195818 18 256 9.7 20.9 0.00 0.00 0.00 38 1010.4
20260503194817 17 221 16.1 33.8 0.00 0.00 0.00 37 1010.5
20260503193818 18 213 8.0 16.1 0.00 0.00 0.00 39 1010.5
20260503192818 17 231 22.5 46.7 0.00 0.00 0.00 39 1010.7
20260503191838 17 228 24.1 40.2 0.00 0.00 0.00 37 1010.8
20260503190818 17 229 12.9 22.5 0.00 0.00 0.00 38 1010.9
20260503185818 18 234 16.1 43.5 0.00 0.00 0.00 37 1011.0
20260503184818 18 243 14.5 30.6 0.00 0.00 0.00 38 1011.2
20260503183817 18 269 20.9 40.2 0.00 0.00 0.00 37 1011.3
20260503182838 16 183 6.4 14.5 0.00 0.00 0.00 41 1011.4
20260503181838 17 256 14.5 25.7 0.00 0.00 0.00 39 1011.6
20260503180818 17 217 12.9 27.4 0.00 0.00 0.00 41 1011.7
20260503175818 17 209 12.9 25.7 0.00 0.00 0.00 40 1011.8
20260503174818 16 240 9.7 25.7 0.00 0.00 0.00 42 1012.1
20260503173818 17 205 9.7 22.5 0.00 0.00 0.00 40 1012.1
20260503172818 17 218 9.7 17.7 0.00 0.00 0.00 45 1012.3
20260503171818 16 197 9.7 22.5 0.00 0.00 0.00 41 1012.4
20260503170856 16 213 9.7 24.1 0.00 0.00 0.00 43 1012.6
20260503150815 15 231 6.4 12.9 0.00 0.00 0.00 47 1013.7
20260503130856 8 223 8.0 14.5 0.00 0.00 0.00 55 1014.3
20260503080818 -1 0.0 0.0 0.00 0.00 0.00 83 1015.2
20260503072856 0 0.0 0.0 0.00 0.00 0.00 83 1015.2
20260503071836 0 0.0 0.0 0.00 0.00 0.00 83 1015.3
20260503070815 0 0.0 0.0 0.00 0.03 0.00 83 1015.2
20260503054816 0 0.0 0.0 0.00 0.15 0.00 81 1015.8
20260503053815 0 0.0 0.0 0.00 0.15 0.00 80 1015.8
20260503052836 0 0.0 0.0 0.00 0.15 0.00 80 1015.8
20260503051815 0 0.0 0.0 0.00 0.15 0.00 79 1015.9
20260503050815 0 0.0 0.0 0.00 0.15 0.00 79 1015.9
20260503045815 0 0.0 0.0 0.00 0.15 0.00 78 1016.0
20260503044836 0 0.0 0.0 0.00 0.15 0.00 78 1016.0
20260503043816 0 0.0 0.0 0.00 0.15 0.00 77 1016.0
20260503042815 1 0.0 0.0 0.00 0.15 0.00 76 1016.0
20260503041815 1 0.0 0.0 0.00 0.15 0.00 76 1016.1
20260503040816 1 0.0 0.0 0.00 0.15 0.00 76 1016.2
20260503035815 1 0.0 0.0 0.00 0.15 0.15 75 1016.1
20260503034856 1 0.0 0.0 0.00 0.15 0.15 74 1016.2
20260503033816 1 0.0 0.0 0.00 0.15 0.15 72 1016.2
20260503032815 1 0.0 0.0 0.00 0.15 0.15 72 1016.3
20260503031837 2 0.0 0.0 0.00 0.15 0.15 71 1016.2
20260503030836 2 0.0 0.0 0.00 0.15 0.15 70 1016.2
20260503025816 2 0.0 0.0 0.00 0.15 0.15 68 1016.3
20260503024815 2 0.0 0.0 0.00 0.15 0.15 67 1016.3
20260503023816 3 0.0 0.0 0.00 0.15 0.15 66 1016.4
20260503022816 3 0.0 0.0 0.00 0.15 0.15 66 1016.5
20260503021815 3 0.0 0.0 0.00 0.15 0.15 65 1016.5
20260503020816 4 0.0 0.0 0.00 0.15 0.15 64 1016.3
20260503015816 4 0.0 0.0 0.00 0.15 0.15 62 1016.3
20260503014816 5 0.0 0.0 0.00 0.15 0.15 60 1016.3
20260503013816 5 0.0 0.0 0.00 0.15 0.15 59 1016.3
20260503012816 6 0.0 0.0 0.00 0.15 0.15 57 1016.2
20260503011815 6 0.0 0.0 0.00 0.15 0.15 55 1016.2
20260503010816 7 0.0 0.0 0.00 0.15 0.15 55 1016.2
20260503005836 7 0.0 0.0 0.00 0.15 0.15 54 1016.1
20260503004815 7 0.0 0.0 0.00 0.15 0.15 54 1016.1
20260503003816 8 0.0 0.0 0.00 0.15 0.15 54 1016.0
20260503002816 8 0.0 0.0 0.00 0.15 0.15 52 1016.0
20260503001815 8 238 0.0 1.6 0.00 0.15 0.15 51 1015.9
20260503000836 8 247 1.6 4.8 0.00 0.15 0.15 48 1016.0
20260502235835 8 257 4.8 6.4 0.00 0.15 0.15 47 1015.9
20260502234816 8 301 3.2 4.8 0.00 0.15 0.15 46 1015.9
20260502233815 8 230 0.0 3.2 0.00 0.15 0.15 47 1015.9
20260502232815 8 216 3.2 4.8 0.00 0.15 0.15 45 1016.0
20260502231856 8 318 1.6 8.0 0.00 0.15 0.15 45 1016.0
20260502230816 8 315 3.2 4.8 0.00 0.15 0.15 44 1016.1
20260502225816 8 307 3.2 9.7 0.00 0.15 0.15 45 1016.0
20260502224816 8 344 1.6 6.4 0.00 0.15 0.15 45 1016.0
20260502223816 8 323 3.2 4.8 0.00 0.15 0.15 44 1016.1
20260502222816 8 269 6.4 11.3 0.00 0.15 0.15 44 1016.1
20260502221836 9 24 1.6 8.0 0.00 0.15 0.15 42 1016.1
20260502220821 9 314 6.4 16.1 0.00 0.15 0.15 42 1016.2
20260502215816 9 326 8.0 16.1 0.00 0.15 0.15 42 1016.1
20260502214816 9 276 1.6 4.8 0.00 0.15 0.15 43 1016.1
20260502213816 9 264 8.0 14.5 0.00 0.15 0.15 42 1016.0
20260502212816 9 328 4.8 9.7 0.00 0.15 0.15 43 1016.1
20260502211815 9 290 6.4 17.7 0.00 0.15 0.15 42 1016.2